Home   Weather   Aurich   Past weeks

Flag for Germany Past Weather in Aurich, Lower Saxony, Germany — Yesterday and Last 2 Weeks

Now
46 °F

Sprinkles. Partly sunny.


Feels Like: 41 °F
Forecast: 38 / 50 °F
Wind: 13 mph from Southwest

Location: Wittmundhaven

Current Time: Apr 27, 2017 at 1:20:57 pm

Latest Report: Apr 27, 2017 at 12:20 pm


Visibility: N/A

Pressure: 29.95 "Hg

Humidity: 62%

Dew Point: 34 °F

Location of AurichLocation

Past Weather in Aurich — Graph

°F

Aurich Temperature Yesterday

Maximum temperature yesterday: 48 °F (at 12:20 pm)
Minimum temperature yesterday: 32 °F (at 5:20 am)
Average temperature yesterday: 41 °F

High & Low Weather Summary for the Past Weeks

 TemperatureHumidityPressure
High55 °F (Apr 21, 1:20 pm)100% (Apr 13, 3:20 am)30.63 "Hg (Apr 13, 3:20 am)
Low27 °F (Apr 20, 6:20 am)42% (Apr 19, 6:20 pm)29.59 "Hg (Apr 25, 4:34 am)
Average43 °F77%30.07 "Hg
* Reported Apr 12 11:20 am — Apr 27 11:20 am, Aurich, Weather by CustomWeather, © 2017

Note: Actual official high and low records may vary slightly from our data, if they occured in-between our weather recording intervals... More about our weather records

Advertising

Aurich Weather History for the Previous 24 Hours

Scroll right to see more
 ConditionsComfort  
Time TempWeatherWind HumidityBarometerVisibility
11:20 am
Thu, Apr 27
41 °FSprinkles. Partly sunny.20 mph81%29.98 "HgN/A
10:47 am45 °FSprinkles. Broken clouds.10 mph61%29.95 "HgN/A
10:20 am45 °FBroken clouds.9 mph66%29.95 "HgN/A
9:20 am45 °FBroken clouds.7 mph71%29.95 "HgN/A
8:20 am41 °FScattered clouds.5 mph76%29.95 "HgN/A
7:20 am36 °FPassing clouds.1 mph93%29.95 "HgN/A
6:20 am34 °FFog.3 mph93%29.95 "HgN/A
5:20 am36 °FPassing clouds.6 mph93%29.95 "HgN/A
4:20 am34 °FPassing clouds.5 mph93%29.95 "HgN/A
3:20 am34 °FPassing clouds.3 mph93%29.95 "HgN/A
2:20 am34 °FPassing clouds.5 mph93%29.95 "HgN/A
1:20 am36 °FPassing clouds.5 mph87%29.95 "HgN/A
12:20 am36 °FPassing clouds.3 mph93%29.95 "HgN/A
11:20 pm
Wed, Apr 26
37 °FPassing clouds.5 mph87%29.95 "HgN/A
10:41 pm37 °FPassing clouds.3 mph87%29.95 "HgN/A
9:20 pm41 °FPassing clouds.3 mph81%29.95 "HgN/A
8:20 pm45 °FPassing clouds.7 mph66%29.92 "HgN/A
7:20 pm46 °FPassing clouds.10 mph57%29.92 "HgN/A
6:20 pm46 °FPassing clouds.10 mph53%29.92 "HgN/A
5:20 pm46 °FScattered clouds.9 mph57%29.92 "HgN/A
4:20 pm48 °FScattered clouds.10 mph46%29.89 "HgN/A
3:20 pm48 °FScattered clouds.10 mph54%29.89 "HgN/A
2:20 pm46 °FScattered clouds.7 mph57%29.89 "HgN/A
1:20 pm46 °FScattered clouds.9 mph57%29.89 "HgN/A
Weather by CustomWeather, © 2017

See weather overviewHow to use our weather pages